Mobile, AL

8:38 AM CDT on May 23, 2017 (GMT -0500)
Mobile Regional

Weather History for KMOB - January, 2013

Change the Weather History Date:

Thursday, January 10, 2013

  Actual Average Record
Temperature  
Mean Temperature 67 °F 50 °F  
Max Temperature 72 °F 60 °F 79 °F (1949)
Min Temperature 62 °F 40 °F 10 °F (1962)
Degree Days  
Heating Degree Days 0 15  
Month to date heating degree days 150  
Since 1 July heating degree days 812  
Cooling Degree Days 2 0  
Month to date cooling degree days 0  
Year to date cooling degree days 0  
Growing Degree Days 17 (Base 50)    
Moisture  
Dew Point 64 °F    
Average Humidity 90    
Maximum Humidity 100    
Minimum Humidity 80    
Precipitation  
Precipitation 0.47 in 0.19 in 2.66 in (1908)
Month to date precipitation 1.74  
Year to date precipitation 1.74  
Snow  
Snow 0.00 in 0.00 in - ()
Month to date snowfall 0.0  
Since 1 July snowfall T  
Snow Depth -    
Sea Level Pressure  
Sea Level Pressure 30.16 in    
Wind  
Wind Speed 12 mph (SE)    
Max Wind Speed 22 mph    
Max Gust Speed 30 mph    
Visibility 5 miles    
Events Rain , Thunderstorm    
T = Trace of Precipitation, MM = Missing Value Source: NWS Daily Summary

Daily Weather History Graph

Daily Weather History Graph

Search for Another Location

Airport or City:

Trip Planner

Search our weather history database for the weather conditions in past years. The results will help you decide how hot, cold, wet, or windy it might be!

Date:

Astronomy

Jan. 10, 2013 Rise Set
Actual Time 6:51 AM CST 5:10 PM CST
Civil Twilight 6:25 AM CST 5:36 PM CST
Nautical Twilight 5:55 AM CST 6:06 PM CST
Astronomical Twilight 5:26 AM CST 6:35 PM CST
Moon 5:31 AM CST (1/10) 4:16 PM CST (1/10)
Length of Visible Light 11h 11m
Length of Day
10h 18m
Waning Crescent, 2% of the Moon is Illuminated
Jan 10
Waning Crescent
Jan 11
New
Jan 18
First Quarter
Jan 26
Full
Feb 3
Last Quarter

Hourly Weather History & Observations

Time (CST) Temp. Dew Point Humidity Pressure Visibility Wind Dir Wind Speed Gust Speed Precip Events Conditions
12:54 AM 66.2 °F 64.4 °F 94% 30.24 in 1.5 mi East 9.2 mph - N/A   Overcast
12:56 AM 66.9 °F 64.9 °F 93% 30.24 in 1.5 mi East 9.2 mph - N/A   Overcast
1:48 AM 66.2 °F 64.4 °F 94% 30.23 in 2.5 mi East 11.5 mph - N/A   Overcast
1:56 AM 66.0 °F 64.9 °F 96% 30.22 in 2.0 mi East 12.7 mph - N/A   Overcast
2:56 AM 66.9 °F 64.9 °F 93% 30.22 in 2.0 mi East 12.7 mph - N/A   Overcast
3:56 AM 66.9 °F 64.9 °F 93% 30.19 in 6.0 mi ESE 15.0 mph - N/A   Overcast
4:28 AM 66.2 °F 64.4 °F 94% 30.19 in 7.0 mi East 15.0 mph - N/A   Overcast
4:47 AM 66.2 °F 64.4 °F 94% 30.18 in 7.0 mi ESE 15.0 mph - N/A   Overcast
4:56 AM 66.9 °F 64.9 °F 93% 30.17 in 7.0 mi ESE 15.0 mph - N/A   Overcast
5:56 AM 66.9 °F 64.9 °F 93% 30.16 in 3.0 mi East 13.8 mph - N/A   Overcast
6:45 AM 66.2 °F 64.4 °F 94% 30.18 in 2.5 mi ESE 13.8 mph - N/A   Overcast
6:56 AM 66.0 °F 64.0 °F 93% 30.19 in 2.5 mi ESE 11.5 mph - N/A   Overcast
6:59 AM 66.2 °F 64.4 °F 94% 30.20 in 1.0 mi ESE 11.5 mph - N/A   Overcast
7:53 AM 66.2 °F 64.4 °F 94% 30.20 in 3.0 mi ESE 15.0 mph - N/A   Overcast
7:56 AM 66.9 °F 64.9 °F 93% 30.19 in 3.0 mi ESE 15.0 mph 20.7 mph N/A   Overcast
8:54 AM 68.0 °F 64.4 °F 88% 30.23 in 3.0 mi ESE 12.7 mph - N/A   Overcast
8:56 AM 68.0 °F 64.9 °F 90% 30.22 in 3.0 mi ESE 15.0 mph - N/A   Overcast
9:56 AM 70.0 °F 66.0 °F 87% 30.24 in 4.0 mi ESE 15.0 mph - N/A   Overcast
10:19 AM 71.6 °F 66.2 °F 83% 30.22 in 7.0 mi ESE 16.1 mph 24.2 mph N/A   Overcast
10:56 AM 71.1 °F 66.0 °F 84% 30.21 in 7.0 mi ESE 18.4 mph 23.0 mph N/A   Overcast
11:56 AM 71.1 °F 66.0 °F 84% 30.19 in 7.0 mi SE 16.1 mph - N/A   Overcast
12:56 PM 72.0 °F 66.0 °F 81% 30.18 in 10.0 mi SSE 16.1 mph 24.2 mph N/A   Overcast
1:56 PM 71.1 °F 66.0 °F 84% 30.15 in 7.0 mi SE 16.1 mph 26.5 mph N/A   Overcast
2:56 PM 70.0 °F 66.0 °F 87% 30.13 in 7.0 mi SE 17.3 mph 25.3 mph N/A   Overcast
3:41 PM 69.8 °F 64.4 °F 83% 30.14 in 1.5 mi SSE 19.6 mph 28.8 mph 0.00 in Rain , Thunderstorm Heavy Thunderstorms and Rain
3:47 PM 66.2 °F 64.4 °F 94% 30.15 in 0.8 mi West 6.9 mph 28.8 mph 0.19 in Rain , Thunderstorm Heavy Thunderstorms and Rain
3:56 PM 66.9 °F 64.9 °F 93% 30.14 in 1.0 mi SE 6.9 mph - 0.33 in Rain , Thunderstorm Thunderstorms and Rain
4:07 PM 66.2 °F 64.4 °F 94% 30.15 in 2.0 mi SE 5.8 mph - 0.10 in Rain Rain
4:42 PM 64.4 °F 62.6 °F 94% 30.16 in 3.0 mi SSW 15.0 mph - 0.12 in Rain Light Rain
4:56 PM 64.9 °F 62.1 °F 90% 30.15 in 3.0 mi SW 5.8 mph - 0.12 in Rain Light Rain
5:25 PM 64.4 °F 62.6 °F 94% 30.15 in 6.0 mi SSE 4.6 mph - 0.00 in Rain Light Rain
5:56 PM 64.0 °F 62.1 °F 93% 30.13 in 6.0 mi ESE 9.2 mph - 0.01 in Rain Light Rain
6:47 PM 62.6 °F 62.6 °F 100% 30.13 in 7.0 mi SE 12.7 mph - 0.01 in Rain Light Rain
6:56 PM 63.0 °F 61.0 °F 93% 30.12 in 7.0 mi SE 18.4 mph - 0.01 in Rain Light Rain
7:56 PM 62.1 °F 60.1 °F 93% 30.09 in 10.0 mi SE 17.3 mph - 0.00 in   Mostly Cloudy
8:22 PM 62.6 °F 60.8 °F 94% 30.07 in 8.0 mi SE 21.9 mph 29.9 mph 0.00 in Rain Light Rain
8:56 PM 63.0 °F 61.0 °F 93% 30.06 in 8.0 mi SE 18.4 mph 26.5 mph 0.00 in   Mostly Cloudy
9:51 PM 64.4 °F 60.8 °F 88% 30.11 in 10.0 mi WSW 12.7 mph 23.0 mph N/A   Scattered Clouds
9:56 PM 64.0 °F 60.1 °F 87% 30.12 in 10.0 mi WSW 9.2 mph 20.7 mph N/A   Mostly Cloudy
10:25 PM 64.4 °F 59.0 °F 83% 30.12 in 10.0 mi Calm Calm - N/A   Mostly Cloudy
10:41 PM 64.4 °F 59.0 °F 83% 30.13 in 10.0 mi SSW 9.2 mph - N/A   Scattered Clouds
10:56 PM 64.0 °F 59.0 °F 84% 30.10 in 10.0 mi SSE 11.5 mph - N/A   Partly Cloudy
11:56 PM 62.1 °F 57.9 °F 86% 30.12 in 10.0 mi SSW 6.9 mph - N/A   Partly Cloudy